Regional Weather Roundup
Issued by NWS Jackson, KY

Home | Current Version | Previous Version | Text Only | Print | Product List | Glossary On
Versions: 1 2 3 4 5 6 7 8 9 10 11 12 13 14 15 16 17 18 19 20 21 22 23 24 25 26 27 28 29 30 31 32 33 34 35 36 37 38 39 40 41 42 43 44 45 46 47 48 49 50
000
ASUS43 KJKL 280910
RWRJKL

EAST KENTUCKY HOURLY WEATHER ROUNDUP
NATIONAL WEATHER SERVICE JACKSON KY
500 AM EDT FRI APR 28 2017

NOTE: "FAIR" INDICATES FEW OR NO CLOUDS BELOW 12,000 FEET WITH
NO SIGNIFICANT WEATHER AND/OR OBSTRUCTIONS TO VISIBILITY.

* THESE REPORTS ARE NOT UNDER NWS QUALITY CONTROL AND MAY NOT
  REPORT WEATHER SUCH AS PRECIPITATION AND FOG.

KYZ079-080-083-085-087-088-110-112-115-119-120-281000
...EASTERN KENTUCKY...

CITY           SKY/WX    TMP DP  RH WIND       PRES   REMARKS
JACKSON        CLEAR     53  49  86 CALM      29.98R
LONDON         CLEAR     51  48  89 N3        29.97R
SOMERSET*      CLOUDY    46  46 100 CALM      29.97R
MONTICELLO*    CLEAR     47  46  97 CALM      29.97R
WILLIAMSBURG*  SUNNY     48  48 100 CALM      29.96R
MIDDLESBORO*   FOG       50  50 100 CALM      29.98R VSB 1
HARLAN APT*    CLOUDY    54  52  94 CALM      29.98R VSB 1/4
PIKE CO APT*     N/A     53  53 100 N6        29.98S
BIG SANDY APT* MOSUNNY   53  53 100 CALM      29.99R
MOREHEAD APT*  MOSUNNY   48  46  93 CALM      29.99S FOG
$$

KYZ035-036-041-042-044-050-067-078-099-281000
...CENTRAL KENTUCKY...

CITY           SKY/WX    TMP DP  RH WIND       PRES   REMARKS
MT STERLING*   CLOUDY    45  43  93 CALM      29.99R
FLEMING/MASON* CLEAR     46  44  95 SE3       29.98S
DANVILLE*      PTCLDY    46  45  93 CALM      29.96F
LEXINGTON      CLOUDY    49  45  86 E6        29.96R
FRANKFORT      CLOUDY    48  44  86 SE5       29.94R
LOUISVILLE     PTCLDY    53  49  86 N6        29.94R
LEBANON*         N/A     50  46  87 E5        29.94F
GLASGOW*       CLOUDY   N/A N/A N/A E3        29.93R
BOWLING GREEN  PTCLDY    52  51  97 NE3       29.93R
$$

KYZ091>093-OHZ055-061-077-WVZ005-015-034-035-042-281000
...SOUTHERN OHIO/WEST VIRGINIA...

CITY           SKY/WX    TMP DP  RH WIND       PRES   REMARKS
COVINGTON      CLOUDY    49  45  86 E3        29.95F
COLUMBUS       PTCLDY    48  45  89 CALM      29.98R
DAYTON         PTCLDY    45  42  89 N5        29.98R
WILMINGTON     PTCLDY    44  44 100 CALM      29.97S
HUNTINGTON     PTCLDY    52  48  86 CALM      29.99R
CHARLESTON     PTCLDY    54  52  93 CALM      29.99R
PINEVILLE*     FOG       56  56  97 MISG      30.04R VSB 1/4
BECKLEY        MOCLDY    57  54  89 N5        30.00R
BLUEFIELD      CLEAR     57  54  89 CALM      30.01R
LOGAN CO APT*    N/A     57  54  88 CALM      29.99R
$$

VAZ002-007-008-TNZ017-027-036-066-071-281000
...SOUTHWEST VIRGINIA/EAST TENNESSEE...

CITY           SKY/WX    TMP DP  RH WIND       PRES   REMARKS
WISE*          CLEAR     55  48  76 CALM      30.02R
JONESVILLE*    FOG       54  54 100 CALM      29.99R VSB<1/4
ABINGDON*      FOG       58  58 100 E3        29.99R VSB 1/4
BRISTOL        FOG       55  55 100 CALM      29.97R VSB 1/4
MORRISTOWN*    SUNNY     55  55 100 CALM      29.95R FOG
SEVIERVILLE*   PTSUNNY   52  52 100 CALM      29.94R VSB 1
KNOXVILLE      CLEAR     57  54  89 CALM      29.93R
LAFOLLETTE*    MOSUNNY   50  50 100 CALM      29.98R FOG
OAK RIDGE      FOG       55  54  96 CALM      29.95R VSB 3/4
CROSSVILLE     CLEAR     49  47  93 CALM      29.96R
NASHVILLE      CLOUDY    52  50  93 CALM      29.91R
$$

...KEY TO REMARKS...
VSB - VISIBILITY IN MILES
WCI - WIND CHILL INDEX
HX  - HEAT INDEX

$$



USA.gov is the U.S. government's official web portal to all federal, state and local government web resources and services.